Notices

What's New in latest Release from April 7th, 2021:

- Updated Glossary, including Speed of Maximum Gust, and Total Hourly Precipitation

- Updated national and regional climate services offices contacts and prices information

- Addition of station inventory lists for 1981-2010, 1971-2000, and 1961-1990 Normals.

If you haven't already, please take our survey and provide feedback about our website: https://eccc.sondage-survey.ca/f/LanguageSelection.aspx?s=442ca660-fcf1-47c0-95a9-59707d6fd709

Hourly Data Report for April 17, 2021

WIARTON A
ONTARIO
Current Station Operator: NAVCAN

44°44'39.000" N
81°06'31.000" W
221.90 m
6119499
71633
YVV

Download Data

Hourly Data (April 2021)
Hourly Data Report for April 17, 2021
TIME
LST
Temp Definition
°C
Dew Point Definition
°C
Rel Hum Definition
%
Precip. Amount Definition
mm

Wind Dir Definition
10's deg

Wind Spd Definition
km/h
Visibility Definition
km
Stn Press Definition
kPa
Hmdx Definition


Wind Chill Definition


Weather Definition


00:00 3.9 3.0 94   36 8 24.1 98.55     LegendNANA
01:00 3.2 2.5 95   36 1 24.1 98.55     Mainly Clear
02:00 2.9 2.5 97   33 5 24.1 98.53     LegendNANA
03:00 1.1 0.9 98   36 1 19.3 98.51     LegendNANA
04:00 1.9 1.8 100   30 6 8.1 98.51     Fog
05:00 1.0 0.9 100   26 7 16.1 98.50     LegendNANA
06:00 1.4 1.4 100   29 4 16.1 98.49     LegendNANA
07:00 1.8 1.7 100   20 5 16.1 98.54     Mainly Clear
08:00 3.8 2.7 92   35 4 24.1 98.56     LegendNANA
09:00 5.7 2.5 80   32 6 24.1 98.57     LegendNANA
10:00 7.3 3.4 76   35 7 24.1 98.55     Mostly Cloudy
11:00 8.4 3.8 73   32 4 24.1 98.54     LegendNANA
12:00 9.1 3.4 68   28 13 24.1 98.50     LegendNANA
13:00 9.5 3.0 64   28 15 24.1 98.47     Mainly Clear
14:00 9.0 3.0 66   27 15 24.1 98.47     LegendNANA
15:00 8.9 2.1 62   28 13 24.1 98.46     LegendNANA
16:00 8.8 2.5 65   27 13 24.1 98.46     Clear
17:00 7.4 1.5 66   27 15 24.1 98.46     LegendNANA
18:00 6.5 1.6 71   27 14 24.1 98.47     LegendNANA
19:00 5.1 1.8 79   24 9 24.1 98.46     Mainly Clear
20:00 3.7 1.8 87   24 11 24.1 98.50     LegendNANA
21:00 3.0 1.9 92   22 12 24.1 98.50     LegendNANA
22:00 2.7 1.6 92   21 11 24.1 98.49     Clear
23:00 3.1 1.8 92   23 10 24.1 98.47     LegendNANA

Notes on Data Quality.

Legend

  • E = Estimated
  • M = Missing
  • NA = Not Available*
  • [empty] = Indicates an unobserved value
Date modified: